This is the latest recevied weather packets stored in our database for station/object DB2AG-13. If no packets are shown the sender has not sent any weather packets the latest 10 day(s).
| Time | Temp. | Humidity | Pressure | Rain* | Wind** | Luminosity | Snow |
|---|---|---|---|---|---|---|---|
| 1787674938 | 22.78° C | 33% | 1017.7 hPa | - | - | - | - |
| 1787674405 | 22.78° C | 32% | 1017.7 hPa | - | - | - | - |
| 1787673867 | 22.78° C | 33% | 1017.6 hPa | - | - | - | - |
| 1787673336 | 22.78° C | 32% | 1017.6 hPa | - | - | - | - |
| 1787672802 | 23.33° C | 31% | 1017.4 hPa | - | - | - | - |
| 1787672264 | 23.33° C | 31% | 1017.5 hPa | - | - | - | - |
| 1787671731 | 23.33° C | 30% | 1017.4 hPa | - | - | - | - |
| 1787671203 | 23.89° C | 30% | 1017.4 hPa | - | - | - | - |
| 1787670677 | 23.89° C | 30% | 1017.4 hPa | - | - | - | - |
| 1787670146 | 23.89° C | 28% | 1017.4 hPa | - | - | - | - |
| 1787669613 | 24.44° C | 29% | 1017.3 hPa | - | - | - | - |
| 1787669076 | 24.44° C | 28% | 1017.4 hPa | - | - | - | - |
| 1787668536 | 25° C | 28% | 1017.4 hPa | - | - | - | - |
| 1787667996 | 25° C | 28% | 1017.3 hPa | - | - | - | - |
| 1787667456 | 25° C | 28% | 1017.5 hPa | - | - | - | - |
| 1787666911 | 25.56° C | 28% | 1017.5 hPa | - | - | - | - |
| 1787666374 | 25.56° C | 27% | 1017.4 hPa | - | - | - | - |
| 1787665833 | 26.11° C | 27% | 1017.6 hPa | - | - | - | - |
| 1787665295 | 26.67° C | 28% | 1017.5 hPa | - | - | - | - |
| 1787664756 | 26.67° C | 27% | 1017.6 hPa | - | - | - | - |
| 1787664218 | 26.67° C | 27% | 1017.5 hPa | - | - | - | - |
| 1787663689 | 27.22° C | 28% | 1017.5 hPa | - | - | - | - |
| 1787663154 | 27.22° C | 28% | 1017.6 hPa | - | - | - | - |
| 1787662622 | 26.67° C | 29% | 1017.7 hPa | - | - | - | - |
| 1787661544 | 26.11° C | 30% | 1017.8 hPa | - | - | - | - |
* Rain since midnight (hover to see other rain measurements)
** Current wind speed in m/s (hover to see current wind gust speed)